TimeCST,TemperatureF,Dew PointF,Humidity,Sea Level PressureIn,VisibilityMPH,Wind Direction,Wind SpeedMPH,Gust SpeedMPH,PrecipitationIn,Events,Conditions,WindDirDegrees,DateUTC
12:51 AM,48.9,48.0,97,30.22,10.0,Calm,Calm,-,N/A,,Clear,0,2012-11-09 06:51:00
1:51 AM,51.1,48.0,89,30.20,10.0,Calm,Calm,-,N/A,,Clear,0,2012-11-09 07:51:00
2:51 AM,51.1,48.9,92,30.21,10.0,Calm,Calm,-,N/A,,Clear,0,2012-11-09 08:51:00
3:51 AM,52.0,50.0,93,30.21,10.0,Calm,Calm,-,N/A,,Clear,0,2012-11-09 09:51:00
4:51 AM,57.0,52.0,83,30.22,10.0,East,4.6,-,N/A,,Clear,100,2012-11-09 10:51:00
5:51 AM,59.0,52.0,78,30.23,10.0,ENE,3.5,-,N/A,,Clear,70,2012-11-09 11:51:00
6:51 AM,59.0,54.0,83,30.25,10.0,Calm,Calm,-,N/A,,Clear,0,2012-11-09 12:51:00
7:51 AM,64.0,55.0,73,30.26,10.0,ENE,3.5,-,N/A,,Clear,70,2012-11-09 13:51:00
8:51 AM,66.9,55.0,66,30.27,10.0,East,6.9,-,N/A,,Clear,80,2012-11-09 14:51:00
9:51 AM,69.1,54.0,58,30.27,10.0,East,8.1,-,N/A,,Clear,90,2012-11-09 15:51:00
10:51 AM,71.1,53.1,53,30.26,10.0,East,10.4,-,N/A,,Clear,90,2012-11-09 16:51:00
11:51 AM,72.0,54.0,53,30.24,10.0,SE,8.1,-,N/A,,Clear,130,2012-11-09 17:51:00
12:51 PM,72.0,54.0,53,30.21,10.0,East,9.2,-,N/A,,Clear,100,2012-11-09 18:51:00
1:51 PM,72.0,55.0,55,30.20,10.0,East,9.2,-,N/A,,Clear,100,2012-11-09 19:51:00
2:51 PM,71.1,54.0,55,30.19,10.0,East,9.2,-,N/A,,Clear,100,2012-11-09 20:51:00
3:51 PM,70.0,54.0,57,30.19,10.0,ESE,9.2,-,N/A,,Clear,110,2012-11-09 21:51:00
4:51 PM,66.9,55.9,68,30.19,10.0,East,6.9,-,N/A,,Clear,90,2012-11-09 22:51:00
5:51 PM,64.9,57.0,75,30.20,10.0,East,4.6,-,N/A,,Clear,80,2012-11-09 23:51:00
6:51 PM,64.0,57.9,80,30.21,10.0,East,4.6,-,N/A,,Partly Cloudy,80,2012-11-10 00:51:00
7:51 PM,64.0,57.9,80,30.22,10.0,East,4.6,-,N/A,,Clear,80,2012-11-10 01:51:00
8:51 PM,64.0,57.9,80,30.22,10.0,East,5.8,-,N/A,,Clear,90,2012-11-10 02:51:00
9:51 PM,64.0,57.9,80,30.21,10.0,East,5.8,-,N/A,,Clear,100,2012-11-10 03:51:00
10:51 PM,64.0,57.9,80,30.22,10.0,East,3.5,-,N/A,,Clear,90,2012-11-10 04:51:00
11:51 PM,63.0,57.9,84,30.20,10.0,East,4.6,-,N/A,,Partly Cloudy,90,2012-11-10 05:51:00